DW4669 Weather Reports


time (UTC)temp
C
wind
direction
speed
KPH
gust
KPH
rain 1hr
cm
rain 24hr
cm
rain mn
cm
humidity
%
barometer
mb
20260510142517 17 299 0.0 9.7 0.00 0.41 0.00 85 1012.2
20260510142018 16 0 1.6 9.7 0.00 0.41 0.00 83 1012.2
20260510141528 16 0 0.0 8.0 0.00 0.41 0.00 85 1012.1
20260510141014 16 227 1.6 8.0 0.00 0.41 0.00 86 1012.1
20260510140541 16 0 0.0 8.0 0.00 0.41 0.00 87 1012.2
20260510140030 15 0 1.6 8.0 0.00 0.41 0.00 89 1012.1
20260510135510 15 0 0.0 3.2 0.00 0.41 0.00 91 1012.0
20260510135014 14 235 0.0 3.2 0.00 0.41 0.00 92 1012.0
20260510134530 14 0 0.0 4.8 0.00 0.41 0.00 94 1012.0
20260510134012 13 0 0.0 4.8 0.00 0.41 0.00 96 1012.1
20260510133511 13 0 0.0 1.6 0.00 0.41 0.00 97 1012.2
20260510133028 13 0 0.0 3.2 0.00 0.41 0.00 96 1012.3
20260510132511 12 0 0.0 4.8 0.00 0.41 0.00 97 1012.5
20260510132012 12 0 0.0 4.8 0.00 0.41 0.00 97 1012.4
20260510131530 12 0 0.0 4.8 0.00 0.41 0.00 98 1012.4
20260510131010 12 0 0.0 4.8 0.00 0.41 0.00 98 1012.3
20260510130511 12 0 0.0 3.2 0.00 0.41 0.00 98 1012.4
20260510130029 11 0 0.0 3.2 0.00 0.41 0.00 98 1012.2
20260510125511 11 0 0.0 0.0 0.00 0.41 0.00 98 1012.2
20260510125009 11 0 0.0 0.0 0.00 0.41 0.00 97 1012.1
20260510124530 11 0 0.0 0.0 0.00 0.41 0.00 98 1012.1
20260510124012 11 0 0.0 0.0 0.00 0.41 0.00 98 1012.2
20260510123510 11 0 0.0 0.0 0.00 0.41 0.00 98 1012.1
20260510123030 11 0 0.0 0.0 0.00 0.41 0.00 97 1012.0
20260510122511 11 0 0.0 0.0 0.00 0.41 0.00 97 1012.0
20260510122011 10 0 0.0 0.0 0.00 0.41 0.00 97 1011.8
20260510121528 10 0 0.0 0.0 0.00 0.41 0.00 97 1011.7
20260510121011 11 0 0.0 0.0 0.00 0.41 0.00 98 1011.8
20260510120513 10 0 0.0 0.0 0.00 0.41 0.00 98 1011.8
20260510120030 10 0 0.0 0.0 0.00 0.41 0.00 98 1011.6
20260510115511 10 0 0.0 0.0 0.00 0.43 0.00 97 1011.6
20260510115016 10 0 0.0 0.0 0.00 0.43 0.00 97 1011.5
20260510114530 10 0 0.0 0.0 0.00 0.43 0.00 97 1011.4
20260510114013 10 0 0.0 0.0 0.00 0.43 0.00 98 1011.3
20260510113511 10 0 0.0 0.0 0.00 0.43 0.00 98 1011.5
20260510113030 10 0 0.0 0.0 0.00 0.43 0.00 97 1011.5
20260510112512 10 0 0.0 0.0 0.00 0.43 0.00 97 1011.4
20260510112017 10 0 0.0 0.0 0.00 0.43 0.00 97 1011.3
20260510111530 10 0 0.0 0.0 0.00 0.43 0.00 97 1011.3
20260510111011 10 0 0.0 0.0 0.00 0.43 0.00 98 1011.2
20260510110512 10 0 0.0 0.0 0.00 0.43 0.00 98 1011.0
20260510110205 10 0 0.0 0.0 0.00 0.43 0.00 97 1011.0
20260510105515 10 0 0.0 0.0 0.00 0.43 0.00 98 1011.0
20260510105016 9 0 0.0 0.0 0.00 0.43 0.00 98 1011.0
20260510104532 9 0 0.0 0.0 0.00 0.43 0.00 97 1010.8
20260510104012 9 0 0.0 0.0 0.00 0.43 0.00 97 1010.8
20260510103514 9 0 0.0 0.0 0.00 0.43 0.00 97 1010.7
20260510103031 9 0 0.0 0.0 0.00 0.43 0.00 97 1010.7
20260510102511 9 0 0.0 0.0 0.00 0.43 0.00 97 1010.6
20260510102014 9 0 0.0 0.0 0.00 0.43 0.00 97 1010.5
20260510101527 9 0 0.0 0.0 0.00 0.43 0.00 97 1010.5
20260510101013 9 0 0.0 0.0 0.00 0.43 0.00 97 1010.6
20260510100509 9 0 0.0 0.0 0.00 0.43 0.00 97 1010.6
20260510100030 9 0 0.0 0.0 0.00 0.43 0.00 97 1010.6
20260510095514 9 0 0.0 0.0 0.00 0.43 0.00 97 1010.4
20260510095017 9 0 0.0 0.0 0.00 0.43 0.00 97 1010.4
20260510094541 9 0 0.0 0.0 0.00 0.43 0.00 97 1010.2
20260510094012 9 0 0.0 0.0 0.00 0.43 0.00 97 1010.2
20260510093512 9 0 0.0 0.0 0.00 0.43 0.00 97 1010.3
20260510093034 9 0 0.0 0.0 0.00 0.43 0.00 97 1010.2
20260510092520 9 0 0.0 0.0 0.00 0.43 0.00 97 1010.0
20260510092012 9 0 0.0 0.0 0.00 0.43 0.00 97 1010.0
20260510091534 9 0 0.0 0.0 0.00 0.43 0.00 97 1010.1
20260510091013 9 0 0.0 0.0 0.00 0.43 0.00 97 1010.1
20260510090510 9 0 0.0 0.0 0.00 0.43 0.00 97 1010.1
20260510090033 9 0 0.0 0.0 0.00 0.43 0.00 97 1010.1
20260510085512 9 0 0.0 0.0 0.00 0.43 0.00 97 1010.1
20260510085010 9 0 0.0 0.0 0.00 0.43 0.00 97 1010.2
20260510084534 9 0 0.0 0.0 0.00 0.43 0.00 97 1010.3
20260510084011 9 0 0.0 0.0 0.00 0.43 0.00 97 1010.3
20260510083511 9 0 0.0 0.0 0.00 0.43 0.00 97 1010.4
20260510083047 9 0 0.0 0.0 0.00 0.43 0.00 97 1010.5
20260510082512 9 0 0.0 0.0 0.00 0.43 0.00 97 1010.4
20260510082015 8 0 0.0 0.0 0.00 0.43 0.00 97 1010.8
20260510081528 8 0 0.0 0.0 0.00 0.43 0.00 97 1010.8
20260510081011 8 0 0.0 0.0 0.00 0.43 0.00 97 1010.7
20260510080511 8 0 0.0 0.0 0.00 0.43 0.00 97 1010.7
20260510080029 8 0 0.0 0.0 0.00 0.43 0.00 97 1010.8
20260510075511 8 0 0.0 0.0 0.00 0.46 0.00 97 1010.8
20260510075011 8 0 0.0 0.0 0.00 0.46 0.00 97 1010.9
20260510074530 8 0 0.0 0.0 0.00 0.46 0.00 97 1011.0
20260510074012 8 0 0.0 0.0 0.00 0.46 0.00 97 1011.1
20260510073510 7 0 0.0 0.0 0.00 0.46 0.00 97 1011.2
20260510073028 7 0 0.0 0.0 0.00 0.46 0.00 97 1011.2
20260510072514 7 0 0.0 0.0 0.00 0.46 0.00 97 1011.0
20260510072012 7 0 0.0 1.6 0.00 0.46 0.00 97 1011.2
20260510071535 7 0 0.0 1.6 0.00 0.46 0.00 97 1011.0
20260510071014 7 0 0.0 0.0 0.00 0.46 0.00 97 1011.4
20260510070511 7 0 0.0 4.8 0.00 0.46 0.00 97 1011.4
20260510070028 6 0 0.0 6.4 0.00 0.46 0.00 97 1011.4
20260510065512 6 0 3.2 6.4 0.00 0.48 0.00 96 1011.6
20260510065015 6 0 0.0 0.0 0.00 0.48 0.00 96 1010.8
20260510064529 6 0 0.0 0.0 0.00 0.48 0.00 96 1010.7
20260510064012 6 0 0.0 0.0 0.00 0.48 0.00 96 1010.7
20260510063515 6 0 0.0 0.0 0.00 0.48 0.00 97 1010.7
20260510063030 6 0 0.0 0.0 0.00 0.48 0.00 97 1010.7
20260510062511 6 0 0.0 0.0 0.00 0.48 0.00 96 1010.8
20260510062012 6 0 0.0 0.0 0.00 0.48 0.00 96 1010.8
20260510061534 6 0 0.0 0.0 0.00 0.48 0.00 96 1010.7
20260510061012 6 0 0.0 0.0 0.00 0.48 0.00 96 1010.8
20260510060512 6 0 0.0 0.0 0.00 0.48 0.00 97 1010.8
20260510060038 6 0 0.0 0.0 0.00 0.48 0.00 97 1011.0
20260510055511 5 0 0.0 0.0 0.00 0.48 0.00 97 1011.0
20260510055013 5 0 0.0 0.0 0.00 0.48 0.00 97 1011.1
20260510054535 5 0 0.0 0.0 0.00 0.48 0.00 96 1011.0
20260510054016 5 0 0.0 0.0 0.00 0.48 0.00 96 1011.0
20260510053512 5 0 0.0 0.0 0.00 0.48 0.00 96 1010.8
20260510053030 5 0 0.0 0.0 0.00 0.48 0.00 95 1010.7
20260510052514 5 0 0.0 0.0 0.00 0.48 0.00 95 1010.7
20260510052013 5 0 0.0 0.0 0.00 0.48 0.00 96 1010.4
20260510051529 5 0 0.0 0.0 0.00 0.48 0.00 96 1010.3
20260510051012 5 0 0.0 0.0 0.00 0.48 0.00 96 1010.2
20260510050510 5 0 0.0 0.0 0.00 0.48 0.00 95 1010.1
20260510050030 5 0 0.0 0.0 0.00 0.48 0.00 95 1010.3
20260510045514 5 0 0.0 0.0 0.00 0.48 0.00 95 1010.4
20260510045012 5 0 0.0 0.0 0.00 0.48 0.00 95 1010.4
20260510044528 5 0 0.0 0.0 0.00 0.48 0.00 95 1010.5
20260510044011 5 0 0.0 0.0 0.00 0.48 0.00 95 1010.5
20260510043511 5 0 0.0 0.0 0.00 0.48 0.00 95 1010.6
20260510043033 6 0 0.0 0.0 0.00 0.48 0.00 96 1010.6
20260510042517 6 0 0.0 0.0 0.00 0.48 0.00 96 1010.7
20260510042011 6 0 0.0 0.0 0.00 0.48 0.00 96 1010.4
20260510041529 5 0 0.0 0.0 0.00 0.48 0.00 95 1010.4
20260510041010 5 0 0.0 0.0 0.03 0.48 0.00 95 1010.4
20260510040511 5 0 0.0 0.0 0.03 0.48 0.00 95 1010.3
20260510040032 5 0 0.0 0.0 0.03 0.48 0.00 95 1010.3
20260510035511 5 0 0.0 0.0 0.03 0.48 0.48 95 1010.2
20260510035012 5 0 0.0 0.0 0.03 0.48 0.48 95 1010.2
20260510034529 6 0 0.0 0.0 0.03 0.48 0.48 94 1010.2
20260510034012 6 0 0.0 0.0 0.03 0.48 0.48 95 1010.2
20260510033512 6 0 0.0 0.0 0.03 0.48 0.48 95 1010.2
20260510033030 6 0 0.0 0.0 0.03 0.48 0.48 95 1010.1
20260510032511 6 0 0.0 0.0 0.03 0.48 0.48 95 1010.0
20260510032011 6 0 0.0 0.0 0.03 0.48 0.48 94 1010.3
20260510031530 6 0 0.0 0.0 0.03 0.48 0.48 95 1010.1
20260510031010 7 0 0.0 0.0 0.00 0.46 0.46 95 1010.2
20260510030516 7 0 0.0 0.0 0.00 0.46 0.46 95 1010.2
20260510030029 7 0 0.0 0.0 0.00 0.46 0.46 95 1010.2
20260510025516 7 0 0.0 0.0 0.00 0.46 0.46 95 1010.3
20260510025012 7 0 0.0 0.0 0.00 0.46 0.46 95 1010.3
20260510024527 7 0 0.0 0.0 0.00 0.46 0.46 94 1010.4
20260510024011 7 0 0.0 0.0 0.00 0.46 0.46 94 1010.4
20260510023511 7 0 0.0 0.0 0.00 0.46 0.46 94 1010.2
20260510023030 7 0 0.0 0.0 0.00 0.46 0.46 95 1010.1
20260510022510 7 0 0.0 0.0 0.00 0.46 0.46 95 1010.1
20260510022010 8 0 0.0 0.0 0.00 0.46 0.46 95 1010.1
20260510021528 8 0 0.0 0.0 0.00 0.46 0.46 95 1010.1
20260510021009 8 0 0.0 0.0 0.00 0.46 0.46 95 1010.2
20260510020515 8 0 0.0 0.0 0.00 0.46 0.46 95 1010.1
20260510020030 8 0 0.0 0.0 0.00 0.46 0.46 95 1010.1
20260510015512 8 0 0.0 0.0 0.00 0.46 0.46 95 1010.1
20260510015011 8 0 0.0 0.0 0.00 0.46 0.46 95 1010.1
20260510014530 8 0 0.0 0.0 0.00 0.46 0.46 95 1010.1
20260510014012 8 0 0.0 0.0 0.00 0.46 0.46 95 1010.1
20260510013513 8 0 0.0 0.0 0.00 0.46 0.46 95 1009.9
20260510013028 8 0 0.0 0.0 0.00 0.46 0.46 94 1009.9
20260510012511 8 0 0.0 0.0 0.00 0.46 0.46 94 1010.0
20260510012011 9 0 0.0 0.0 0.00 0.46 0.46 94 1009.9
20260510011531 9 0 0.0 0.0 0.00 0.46 0.46 94 1010.0
20260510011010 9 0 0.0 0.0 0.00 0.46 0.46 94 1009.8
20260510010511 9 0 0.0 0.0 0.00 0.46 0.46 94 1009.8
20260510010029 9 0 0.0 0.0 0.00 0.46 0.46 94 1009.7
20260510005512 10 0 0.0 0.0 0.00 0.46 0.46 94 1009.7
20260510005015 10 0 0.0 0.0 0.00 0.46 0.46 94 1009.6
20260510004528 10 0 0.0 0.0 0.00 0.46 0.46 93 1009.6
20260510004015 10 0 0.0 0.0 0.00 0.46 0.46 94 1009.5
20260510003515 10 0 0.0 0.0 0.00 0.46 0.46 94 1009.5
20260510003038 10 0 0.0 0.0 0.00 0.46 0.46 94 1009.5
20260510002515 10 0 0.0 0.0 0.00 0.46 0.46 94 1009.4
20260510002014 11 0 0.0 1.6 0.00 0.46 0.46 93 1009.4
20260510001530 11 0 0.0 1.6 0.00 0.46 0.46 94 1009.2
20260510001014 11 0 0.0 3.2 0.00 0.46 0.46 93 1009.0
20260510000514 11 0 0.0 3.2 0.00 0.46 0.46 93 1009.0
20260510000031 11 0 0.0 3.2 0.00 0.46 0.46 93 1009.0
20260509235513 11 0 0.0 1.6 0.00 0.46 0.46 93 1009.1
20260509235011 11 0 0.0 1.6 0.00 0.46 0.46 93 1009.0
20260509234538 12 0 0.0 6.4 0.00 0.46 0.46 93 1009.0
20260509234011 12 0 0.0 6.4 0.00 0.46 0.46 93 1009.0
20260509233514 12 0 0.0 3.2 0.00 0.46 0.46 94 1009.2
20260509233030 12 0 0.0 3.2 0.00 0.46 0.46 93 1009.2
20260509232515 12 0 0.0 0.0 0.00 0.46 0.46 93 1009.1
20260509232019 12 0 0.0 0.0 0.00 0.46 0.46 93 1009.2
20260509231533 12 0 0.0 4.8 0.00 0.46 0.46 93 1009.1
20260509231012 12 0 0.0 4.8 0.00 0.46 0.46 93 1009.2
20260509230513 12 0 0.0 4.8 0.00 0.46 0.46 93 1009.1
20260509230031 13 0 0.0 1.6 0.00 0.46 0.46 94 1009.1
20260509225515 13 0 0.0 0.0 0.00 0.46 0.46 95 1009.1
20260509225014 12 0 0.0 0.0 0.00 0.46 0.46 95 1009.2
20260509224534 12 0 0.0 3.2 0.00 0.46 0.46 94 1009.2
20260509224014 12 0 0.0 3.2 0.00 0.46 0.46 94 1009.2
20260509223516 12 0 0.0 3.2 0.00 0.46 0.46 94 1009.3
20260509223034 12 0 0.0 1.6 0.00 0.46 0.46 94 1009.3
20260509222515 12 0 0.0 1.6 0.00 0.46 0.46 94 1009.2
20260509222015 12 0 0.0 1.6 0.00 0.46 0.46 94 1009.2
20260509221533 12 0 0.0 1.6 0.00 0.46 0.46 94 1009.2
20260509221016 12 0 0.0 1.6 0.00 0.46 0.46 94 1009.2
20260509220515 12 0 0.0 1.6 0.00 0.46 0.46 94 1009.3
20260509220030 12 0 0.0 3.2 0.00 0.46 0.46 94 1009.3
20260509215516 12 0 0.0 3.2 0.03 0.46 0.46 94 1009.3
20260509215015 12 0 0.0 1.6 0.03 0.46 0.46 94 1009.5
20260509214845 12 0 0.0 1.6 0.03 0.46 0.46 94 1009.3
20260509214529 12 0 0.0 1.6 0.03 0.46 0.46 94 1009.3
20260509214014 12 0 0.0 0.0 0.03 0.46 0.46 94 1009.4
20260509213512 12 0 0.0 0.0 0.03 0.46 0.46 94 1009.4
20260509213030 12 0 0.0 0.0 0.05 0.46 0.46 94 1009.5
20260509212509 12 0 0.0 0.0 0.05 0.46 0.46 94 1009.5
20260509212014 12 0 0.0 0.0 0.08 0.46 0.46 94 1009.6
20260509211527 12 0 0.0 0.0 0.10 0.46 0.46 94 1009.4
20260509211011 12 0 0.0 4.8 0.13 0.46 0.46 94 1009.5
20260509210511 12 0 0.0 4.8 0.13 0.46 0.46 94 1009.5
20260509210028 12 0 0.0 4.8 0.13 0.46 0.46 93 1009.5
20260509205510 12 0 0.0 6.4 0.10 0.43 0.43 93 1009.6
20260509205012 12 0 0.0 6.4 0.10 0.43 0.43 94 1009.6
20260509204536 12 0 0.0 1.6 0.13 0.43 0.43 94 1009.6
20260509204010 12 0 0.0 1.6 0.13 0.43 0.43 94 1009.6
20260509203513 12 0 0.0 4.8 0.13 0.43 0.43 93 1009.7
20260509203038 12 0 0.0 4.8 0.10 0.41 0.41 93 1009.7
20260509202511 12 0 0.0 3.2 0.10 0.41 0.41 93 1009.9
20260509202010 12 0 0.0 3.2 0.10 0.38 0.38 93 1010.0
20260509201528 12 0 0.0 9.7 0.08 0.36 0.36 93 1010.0
20260509201015 12 0 0.0 9.7 0.05 0.33 0.33 92 1010.0
20260509200513 12 257 0.0 8.0 0.05 0.33 0.33 93 1010.1
20260509200030 12 0 0.0 1.6 0.05 0.33 0.33 93 1010.0
20260509195511 12 0 0.0 8.0 0.05 0.33 0.33 93 1010.1
20260509195012 12 0 0.0 8.0 0.08 0.33 0.33 92 1010.2
20260509194531 12 240 0.0 1.6 0.05 0.30 0.30 93 1010.3
20260509194012 12 0 0.0 1.6 0.08 0.30 0.30 93 1010.3
20260509193513 12 0 0.0 4.8 0.10 0.30 0.30 93 1010.4
20260509193030 12 0 0.0 4.8 0.10 0.30 0.30 92 1010.6
20260509192512 12 0 0.0 4.8 0.10 0.30 0.30 92 1010.5
20260509192015 12 0 0.0 1.6 0.10 0.28 0.28 92 1010.5
20260509191537 12 0 0.0 1.6 0.10 0.28 0.28 92 1010.6
20260509191013 12 0 0.0 1.6 0.13 0.28 0.28 92 1010.7
20260509190513 12 0 0.0 3.2 0.13 0.28 0.28 92 1010.7
20260509190028 12 0 0.0 3.2 0.13 0.28 0.28 92 1010.8
20260509185513 12 0 0.0 8.0 0.13 0.28 0.28 92 1010.8
20260509185015 12 0 0.0 8.0 0.10 0.25 0.25 91 1010.8
20260509184533 12 0 0.0 4.8 0.13 0.25 0.25 91 1011.0
20260509184011 12 289 0.0 11.3 0.10 0.23 0.23 92 1011.1
20260509183510 12 281 0.0 11.3 0.08 0.20 0.20 91 1011.3
20260509183030 12 303 1.6 8.0 0.08 0.20 0.20 92 1011.4
20260509182512 12 0 0.0 9.7 0.05 0.18 0.18 92 1011.2
20260509182012 12 275 0.0 9.7 0.05 0.18 0.18 92 1011.2
20260509181527 12 0 0.0 9.7 0.03 0.15 0.15 92 1011.1
20260509181012 12 0 0.0 9.7 0.03 0.15 0.15 93 1011.0
20260509180512 12 306 0.0 6.4 0.03 0.15 0.15 93 1010.9
20260509180028 12 321 0.0 8.0 0.03 0.15 0.15 93 1010.9
20260509175512 12 0 0.0 8.0 0.03 0.15 0.15 93 1011.0
20260509175011 12 242 0.0 8.0 0.03 0.15 0.15 93 1010.8
20260509174528 12 13 1.6 8.0 0.00 0.13 0.13 93 1010.8
20260509174011 12 0 0.0 4.8 0.00 0.13 0.13 94 1010.8
20260509173511 12 296 1.6 6.4 0.00 0.13 0.13 94 1010.8
20260509173028 12 323 0.0 8.0 0.00 0.13 0.13 94 1010.7
20260509172511 12 326 1.6 8.0 0.00 0.13 0.13 94 1010.7
20260509172014 12 0 0.0 4.8 0.00 0.13 0.13 94 1010.7
20260509171530 12 0 0.0 1.6 0.00 0.13 0.13 93 1010.5
20260509171019 12 0 0.0 3.2 0.03 0.13 0.13 93 1010.5
20260509170509 12 0 0.0 4.8 0.03 0.13 0.13 94 1010.5
20260509170039 12 0 0.0 4.8 0.03 0.13 0.13 94 1010.5
20260509165512 12 0 0.0 4.8 0.03 0.13 0.13 94 1010.5
20260509165016 12 0 0.0 4.8 0.03 0.13 0.13 94 1010.6
20260509164536 12 0 0.0 4.8 0.03 0.13 0.13 94 1010.6
20260509164013 12 0 0.0 4.8 0.03 0.13 0.13 94 1010.7
20260509163512 12 0 0.0 4.8 0.03 0.13 0.13 94 1010.8
20260509163030 12 0 0.0 4.8 0.03 0.13 0.13 94 1010.9
20260509162511 12 0 0.0 4.8 0.03 0.13 0.13 94 1010.9
20260509162018 12 315 0.0 4.8 0.05 0.13 0.13 94 1010.9
20260509161533 11 0 0.0 4.8 0.05 0.13 0.13 94 1011.1
20260509161011 11 0 0.0 1.6 0.03 0.10 0.10 94 1011.0
20260509160510 11 0 0.0 0.0 0.03 0.10 0.10 94 1011.0
20260509160033 11 0 0.0 3.2 0.03 0.10 0.10 94 1011.2
20260509155513 11 0 0.0 3.2 0.03 0.10 0.10 94 1011.2
20260509155014 11 0 0.0 1.6 0.03 0.10 0.10 94 1011.4
20260509154531 11 0 0.0 1.6 0.03 0.10 0.10 94 1011.3
20260509154011 11 0 0.0 4.8 0.03 0.10 0.10 94 1011.4
20260509153514 11 0 0.0 4.8 0.03 0.10 0.10 94 1011.5
20260509153038 11 0 0.0 4.8 0.03 0.10 0.10 94 1011.6
20260509152511 11 315 0.0 4.8 0.03 0.10 0.10 94 1011.7
20260509152011 11 0 0.0 4.8 0.00 0.08 0.08 94 1011.8
20260509151530 11 0 0.0 6.4 0.00 0.08 0.08 93 1011.7
20260509151010 11 0 0.0 6.4 0.00 0.08 0.08 93 1011.6
20260509150509 10 0 0.0 4.8 0.00 0.08 0.08 93 1011.7
20260509150030 10 315 0.0 4.8 0.00 0.08 0.08 93 1011.6
20260509145510 10 315 0.0 3.2 0.00 0.08 0.08 93 1011.5
20260509145011 11 0 0.0 6.4 0.00 0.08 0.08 93 1011.4
20260509144533 10 0 1.6 6.4 0.00 0.08 0.08 93 1011.4
20260509144010 10 323 1.6 6.4 0.00 0.08 0.08 94 1011.4
20260509143512 10 333 0.0 8.0 0.00 0.08 0.08 94 1011.2
20260509143030 10 321 1.6 8.0 0.00 0.08 0.08 94 1011.2